[[{"header":{"parameterUnit":"m.s-1","parameterCategory":1,"la1":30.2991,"la2":30.254,"lo1":-89.0895,"lo2":-89.0444,"dy":0.0017,"dx":0.0017,"nx":28,"ny":28,"refTime":"2025-12-25T09:00:00:Z","depth":0,"parameterNumber":2,"parameterNumberName":"U-component_of_WINDS"},"data":[0,0,0,0,0,0,0,0,0,0,0,0,0,0,0,0,0,0,0,0,0,0,0,0,0,0,0,0,0,0,0,0,0,0,0,0,0,0,0,0,0,0,0,0,0,0,0,0,0,0,0,0,0,0,0,0,0,0,0.0982,0.0982,0,0.0991,0.0991,0.0991,0.1007,0.1007,0.1008,0.1008,0.1017,0.1016,0.1016,0,0,0,0,0,0,0,0,0,0,0,0,0,0.098,0.098,0.0982,0.0982,0.0982,0.0991,0.0991,0.0991,0.1007,0.1007,0.1008,0.1008,0.1017,0.1016,0.1016,0,0,0,0,0,0,0,0,0,0,0,0,0,0.0984,0.098,0.0982,0.0991,0.0992,0.0991,0.0991,0.0991,0.1007,0.1007,0.1008,0.1008,0.1017,0.1016,0.1016,0.1006,0,0,0.1016,0.1016,0,0,0,0,0,0,0,0,0.0983,0.0984,0.099,0.0991,0.0992,0.0998,0.0993,0.0996,0.1007,0.1001,0.1008,0.1008,0.101,0.1011,0.1011,0.1007,0.1007,0.1016,0.1016,0.1016,0.1016,0,0,0,0,0,0,0,0.0983,0.0983,0.0985,0.099,0.0991,0.0995,0.0996,0.0994,0.1003,0.1002,0.1003,0.1004,0.1011,0.1011,0.1011,0.1007,0.1016,0.1016,0.1016,0.1016,0.0995,0.0995,0,0,0,0,0,0,0.0981,0.0983,0.0985,0.0986,0.0989,0.0995,0.0996,0.0996,0.1003,0.1005,0.1003,0.1004,0.1011,0.1011,0.1012,0.1001,0.1016,0.1016,0.1016,0.0996,0.0995,0.0995,0,0,0,0,0,0,0.0981,0.0982,0.0985,0.0985,0.0985,0.0994,0.0994,0.0996,0.0996,0.1004,0.1006,0.1002,0.1011,0.1012,0.1008,0.1001,0.1016,0.1016,0.0996,0.0996,0.0995,0.0979,0,0,0,0,0,0,0.0981,0.0981,0.0978,0.0985,0.0985,0.0981,0.0993,0.0995,0.0996,0.0997,0.1004,0.1005,0.1012,0.1008,0.1008,0.1001,0.1016,0.0997,0.0996,0.0995,0.098,0.0977,0.0975,0,0,0,0,0,0.0981,0.0973,0.0977,0.0978,0.0981,0.098,0.0981,0.0989,0.0995,0.0992,0.0997,0.1005,0.1002,0.1007,0.1007,0.1001,0.0997,0.0996,0.0995,0.0981,0.0978,0.0975,0,0,0,0,0,0,0.0965,0.0974,0.0979,0.0973,0.0976,0.0983,0.0979,0.0985,0.0987,0.0988,0.0998,0.0999,0.0994,0.0997,0.1002,0.0992,0.1001,0.1,0.099,0.0987,0.0985,0.0985,0.1016,0,0,0,0,0,0.0961,0.0959,0.0967,0.0961,0.0962,0.097,0.097,0.0976,0.0979,0.098,0.0985,0.0988,0.0988,0.0988,0.0988,0.098,0.0982,0.0976,0.0974,0.0972,0.0971,0.0967,0.0965,0.0991,0.0991,0.0991,0,0,0.0952,0.0956,0.0955,0.0957,0.096,0.0959,0.0971,0.0969,0.0968,0.098,0.0977,0.098,0.0984,0.0978,0.0976,0.098,0.0964,0.097,0.0969,0.0969,0.0966,0.0963,0.0961,0.099,0.099,0.0991,0,0,0.0935,0.0938,0.0933,0.0936,0.094,0.0946,0.0944,0.0951,0.0954,0.095,0.096,0.0958,0.0958,0.096,0.0961,0.0945,0.0953,0.0945,0.0934,0.093,0.0928,0.0926,0.0921,0.0919,0.0944,0.0944,0.0944,0,0.0923,0.0921,0.093,0.0927,0.0928,0.0939,0.0934,0.0937,0.0941,0.0941,0.0946,0.0946,0.0949,0.0944,0.094,0.094,0.094,0.0944,0.0928,0.0926,0.0924,0.0919,0.0917,0.0943,0.0943,0.0943,0.0943,0,0.0907,0.0906,0.0901,0.0905,0.0905,0.0901,0.0909,0.0909,0.0914,0.0919,0.0916,0.092,0.0921,0.092,0.0926,0.0916,0.0919,0.0926,0.0935,0.0921,0.0916,0.0914,0.0941,0.0942,0.0942,0.0942,0,0,0.0881,0.0889,0.0888,0.0889,0.0895,0.0894,0.089,0.0892,0.0891,0.0893,0.0891,0.089,0.0896,0.0898,0.0904,0.09,0.0888,0.0907,0.0908,0.0904,0.0877,0.0873,0.087,0.0892,0.0892,0.0892,0.0877,0,0.0866,0.0861,0.0868,0.0861,0.086,0.0871,0.0868,0.0871,0.0875,0.0874,0.0879,0.0879,0.0887,0.0888,0.0885,0.089,0.0883,0.0891,0.0891,0.089,0.089,0.0868,0.0863,0.0849,0.0876,0.0875,0.0875,0,0.0847,0.0849,0.0842,0.0848,0.0848,0.0845,0.0847,0.0846,0.085,0.0853,0.0854,0.0861,0.0859,0.0867,0.0864,0.0869,0.087,0.0872,0.0872,0.0872,0.0882,0.0869,0.0845,0.0843,0.0872,0.0873,0.0873,0,0.0829,0.083,0.0826,0.0827,0.0833,0.0831,0.0834,0.0838,0.0838,0.084,0.084,0.0842,0.0842,0.0843,0.085,0.0856,0.0846,0.0855,0.0849,0.0849,0.0847,0.0847,0.0823,0.0846,0.0846,0.0846,0.0846,0,0.0812,0.0807,0.0818,0.0815,0.0811,0.0819,0.0814,0.0818,0.0821,0.082,0.0829,0.0827,0.0836,0.0836,0.0841,0.0838,0.0838,0.0841,0.0842,0.084,0.084,0.0841,0.0842,0.0846,0.0846,0.0846,0.0846,0,0.0791,0.0798,0.0794,0.0801,0.0802,0.0799,0.0804,0.0802,0.0807,0.0805,0.0805,0.0813,0.0813,0.082,0.0821,0.0825,0.0819,0.0822,0.0818,0.0819,0.0812,0.0813,0.0789,0.0787,0.081,0.081,0.081,0,0.078,0.0777,0.0783,0.0783,0.0785,0.0784,0.0785,0.0793,0.0793,0.0797,0.0794,0.0795,0.0796,0.0795,0.0801,0.0802,0.0805,0.0797,0.0805,0.0803,0.0806,0.0806,0.0806,0.0795,0.0795,0.0794,0.0794,0,0.0759,0.0763,0.0763,0.0765,0.0765,0.0766,0.0768,0.0768,0.0777,0.0776,0.0776,0.0777,0.0778,0.0779,0.0781,0.0784,0.079,0.0791,0.079,0.0788,0.0786,0.0788,0.0813,0.0792,0.0792,0.0792,0.0793,0.0793,0.0743,0.0741,0.0745,0.0745,0.0748,0.0749,0.0748,0.0753,0.0753,0.0754,0.0759,0.0758,0.0762,0.0765,0.0768,0.0767,0.0771,0.0769,0.0769,0.0768,0.0767,0.0786,0.0768,0.0768,0.0768,0.0768,0.0768,0,0.0723,0.0727,0.0726,0.0729,0.0729,0.0736,0.0738,0.0738,0.0737,0.074,0.0741,0.0741,0.0741,0.0747,0.0748,0.0747,0.075,0.0747,0.0747,0.0748,0.0763,0.0765,0.0744,0.0744,0.0744,0.0744,0.0744,0.0744,0.0713,0.071,0.0714,0.0712,0.0715,0.0714,0.0715,0.0717,0.0719,0.0719,0.0719,0.0723,0.0727,0.0728,0.0729,0.0731,0.0731,0.0727,0.073,0.0744,0.0747,0.0749,0.075,0.0727,0.0727,0.0714,0.0714,0.0714]},{"header":{"parameterUnit":"m.s-1","parameterCategory":1,"la1":30.2991,"la2":30.254,"lo1":-89.0895,"lo2":-89.0444,"dy":0.0017,"dx":0.0017,"nx":28,"ny":28,"refTime":"2025-12-25T09:00:00:Z","depth":0,"parameterNumber":3,"parameterNumberName":"V-component_of_WINDS"},"data":[0,0,0,0,0,0,0,0,0,0,0,0,0,0,0,0,0,0,0,0,0,0,0,0,0,0,0,0,0,0,0,0,0,0,0,0,0,0,0,0,0,0,0,0,0,0,0,0,0,0,0,0,0,0,0,0,0,0,1.0497,1.0497,0,1.0448,1.0447,1.0447,1.0423,1.0423,1.0423,1.0423,1.0371,1.037,1.0369,0,0,0,0,0,0,0,0,0,0,0,0,0,1.0569,1.0568,1.0497,1.0497,1.0496,1.0448,1.0447,1.0447,1.0423,1.0423,1.0423,1.0423,1.0372,1.037,1.0368,0,0,0,0,0,0,0,0,0,0,0,0,0,1.0531,1.0568,1.0497,1.0478,1.0476,1.0448,1.0447,1.0447,1.0423,1.0423,1.0423,1.0423,1.0372,1.037,1.0368,1.0355,0,0,1.0362,1.0361,0,0,0,0,0,0,0,0,1.0533,1.0528,1.0482,1.048,1.0477,1.0442,1.0454,1.0416,1.0423,1.0443,1.0423,1.0423,1.0395,1.0391,1.0381,1.0352,1.035,1.0362,1.036,1.0359,1.0359,0,0,0,0,0,0,0,1.0536,1.053,1.0478,1.0481,1.0478,1.0472,1.0467,1.0447,1.0419,1.0441,1.044,1.0434,1.0393,1.0383,1.038,1.0349,1.0362,1.036,1.0358,1.0358,1.0307,1.0307,0,0,0,0,0,0,1.0542,1.0533,1.0479,1.0476,1.0506,1.0471,1.0465,1.0453,1.0419,1.0414,1.0434,1.0433,1.0387,1.0382,1.0378,1.036,1.0359,1.0357,1.0356,1.0307,1.0307,1.0307,0,0,0,0,0,0,1.0543,1.0537,1.0481,1.0504,1.0496,1.0469,1.0457,1.0452,1.0442,1.0414,1.0409,1.0429,1.0387,1.0381,1.0361,1.0358,1.0357,1.0355,1.0307,1.0307,1.0307,1.0325,0,0,0,0,0,0,1.0546,1.0538,1.0533,1.0504,1.0495,1.0465,1.0457,1.0451,1.0439,1.0437,1.0408,1.0403,1.0386,1.0364,1.0359,1.0355,1.0353,1.0308,1.0307,1.0307,1.0324,1.0325,1.0326,0,0,0,0,0,1.0548,1.0539,1.0533,1.0526,1.0488,1.0465,1.046,1.0441,1.0439,1.0433,1.0415,1.0404,1.036,1.0362,1.0356,1.0352,1.0308,1.0307,1.0307,1.0324,1.0325,1.0326,0,0,0,0,0,0,1.0567,1.0535,1.0527,1.0509,1.049,1.0461,1.0454,1.0443,1.0424,1.0423,1.0401,1.0394,1.0376,1.0362,1.0366,1.0337,1.0332,1.0331,1.0347,1.0348,1.0349,1.0353,1.0351,0,0,0,0,0,1.057,1.0554,1.0526,1.0513,1.0504,1.048,1.047,1.0457,1.0436,1.0428,1.0409,1.0389,1.037,1.0358,1.034,1.0322,1.0316,1.0316,1.0317,1.0318,1.0317,1.0307,1.0307,1.0307,1.0307,1.0307,0,0,1.0574,1.0554,1.0545,1.0516,1.05,1.0484,1.0474,1.0457,1.0445,1.0425,1.0405,1.0391,1.0367,1.0348,1.0339,1.0336,1.0316,1.0318,1.0319,1.0317,1.0307,1.0307,1.0307,1.0306,1.0306,1.0306,0,0,1.0573,1.0557,1.0544,1.0528,1.0504,1.0489,1.0486,1.0459,1.0449,1.0428,1.0413,1.0399,1.0367,1.0351,1.0339,1.0333,1.0322,1.0328,1.0332,1.0322,1.0323,1.0322,1.032,1.032,1.0327,1.0327,1.0327,0,1.0581,1.0557,1.0538,1.0523,1.051,1.0493,1.0479,1.0465,1.0436,1.0428,1.0425,1.0385,1.0368,1.0346,1.0344,1.0335,1.0331,1.0331,1.0324,1.0324,1.0323,1.0321,1.0321,1.0328,1.0327,1.0327,1.0327,0,1.0568,1.0551,1.0544,1.0517,1.0504,1.0489,1.0468,1.0457,1.0446,1.0431,1.0411,1.039,1.0367,1.0361,1.0349,1.0336,1.0335,1.0329,1.0323,1.0325,1.0322,1.0321,1.0329,1.0328,1.0328,1.0328,0,0,1.0577,1.0541,1.0538,1.0526,1.0499,1.0486,1.0471,1.0449,1.044,1.0421,1.0408,1.0382,1.0376,1.0362,1.0349,1.0341,1.0338,1.0335,1.0334,1.0336,1.0323,1.0328,1.0327,1.0331,1.033,1.033,1.0325,0,1.0572,1.0545,1.0528,1.0508,1.0492,1.0476,1.0463,1.0445,1.0431,1.0415,1.0399,1.0381,1.0375,1.0366,1.0357,1.034,1.0335,1.034,1.0318,1.0317,1.0324,1.0326,1.0331,1.0326,1.0323,1.0323,1.0323,0,1.0563,1.0545,1.0523,1.0499,1.0492,1.048,1.0459,1.0445,1.0424,1.0414,1.04,1.0386,1.037,1.0366,1.0343,1.0347,1.0337,1.0327,1.0327,1.0323,1.032,1.0322,1.0324,1.0324,1.0321,1.0322,1.0322,0,1.0572,1.0542,1.0526,1.0516,1.0487,1.0479,1.0466,1.0446,1.0434,1.0416,1.0408,1.0388,1.0376,1.0361,1.0343,1.0342,1.0321,1.0316,1.0312,1.0313,1.0308,1.0309,1.0309,1.0302,1.0302,1.0302,1.0302,0,1.0568,1.0556,1.0529,1.0519,1.0504,1.0485,1.0471,1.0457,1.0439,1.0425,1.041,1.0397,1.0374,1.0359,1.0345,1.0328,1.0323,1.0314,1.031,1.0315,1.0316,1.0308,1.0308,1.0302,1.0302,1.0302,1.0302,0,1.0575,1.0557,1.0538,1.0512,1.0506,1.0496,1.0474,1.0463,1.0449,1.0432,1.0427,1.0403,1.0385,1.0365,1.0339,1.033,1.0313,1.0308,1.032,1.0318,1.0316,1.0316,1.031,1.0308,1.0303,1.0304,1.0304,0,1.0574,1.0564,1.0538,1.0528,1.0516,1.05,1.0488,1.0469,1.0458,1.0434,1.0426,1.0406,1.0389,1.036,1.0341,1.0321,1.0315,1.0315,1.0312,1.0318,1.0315,1.0316,1.0315,1.0315,1.0315,1.0316,1.0316,0,1.0574,1.0566,1.055,1.0531,1.0517,1.0501,1.0484,1.0477,1.0455,1.0443,1.0424,1.0411,1.0385,1.0366,1.0344,1.033,1.0319,1.0317,1.0315,1.0319,1.0327,1.0323,1.0322,1.0317,1.0317,1.0317,1.0316,1.0316,1.0577,1.0567,1.0547,1.053,1.0516,1.0501,1.049,1.0474,1.0458,1.0436,1.0426,1.0407,1.0387,1.0357,1.0344,1.0328,1.0325,1.0322,1.0321,1.0321,1.0322,1.033,1.0324,1.0324,1.0324,1.0324,1.0324,0,1.0575,1.0562,1.0547,1.0524,1.0511,1.0502,1.0484,1.0473,1.0456,1.0439,1.0423,1.0401,1.0383,1.0363,1.0343,1.0334,1.0329,1.033,1.033,1.0327,1.0326,1.033,1.0334,1.0334,1.0334,1.0334,1.0334,1.0334,1.0573,1.0557,1.0546,1.0523,1.0509,1.0491,1.0481,1.0467,1.0453,1.043,1.0415,1.0402,1.0384,1.0362,1.0345,1.0339,1.0332,1.0335,1.0328,1.0328,1.0327,1.0326,1.0329,1.0334,1.0334,1.033,1.033,1.033]}]]